Location: Chakepay
(13.3931°S, 72.1925°W)
Time: 08:04:29
(UTC+00:00)

Meteor PRIRODA - Pass Details

Date: 15 November 2019
Orbit: 490 x 512 km, 97.5° (Epoch: 10 December)

Event Time Altitude Azimuth Distance (km) Brightness Sun altitude
Rises 09:01:52 0° 17° (NNE) 2,551 7.1 -16.6°
Reaches altitude 10° 09:03:56 10° 20° (NNE) 1,674 6.2 -16.1°
Maximum altitude 09:07:30 65° 102° (ESE) 542 4.0 -15.3°
Drops below altitude 10° 09:11:07 10° 184° (S) 1,691 6.6 -14.5°
Sets 09:13:12 0° 187° (S) 2,579 7.5 -14.0°
